Simultaneous Nadir Overpasses (SNOs) Predictions

Prediction of SNOs between FY3D and TERRA Satellite Orbit:

Table of predicted SNOs for the next 14.0 days since TLE Epoch: 12/25/2021
Index Date (FY3D) Time (FY3D) Lat,Lon (FY3D) SZA (FY3D ) Date (TERRA) Time (TERRA) Lat,Lon (TERRA) SZA (TERRA ) Distance(km) Time Diff (sec)
1 12/26/2021 23:43:13 70.75,-176.03 93.98 12/26/2021 23:44:21 70.76,-175.97 93.98 1.99 68
2 12/27/2021 00:33:56 -70.65, -8.54 86.13 12/27/2021 00:33:51 -70.64, -8.52 86.15 1.45 5
3 12/27/2021 01:24:34 70.20, 159.48 93.42 12/27/2021 01:23:23 70.26, 158.57 93.48 34.66 71
4 12/29/2021 15:10:22 -70.73, 132.25 86.19 12/29/2021 15:11:21 -70.74, 132.24 86.18 1.84 59
5 12/29/2021 16:01:07 70.66, -60.33 93.74 12/29/2021 16:00:48 70.64, -60.27 93.72 2.80 19
6 12/29/2021 16:51:37 -69.86, 108.23 87.06 12/29/2021 16:50:29 -69.92, 106.33 87.00 73.11 68
7 01/01/2022 06:37:32 70.74, 80.45 93.64 01/01/2022 06:38:17 70.73, 80.47 93.62 1.59 45
8 01/01/2022 07:28:15 -70.63,-112.05 86.49 01/01/2022 07:27:47 -70.62,-112.07 86.50 1.05 28
9 01/03/2022 22:04:41 -70.71, 28.73 86.64 01/03/2022 22:05:17 -70.70, 28.66 86.65 2.66 36
10 01/03/2022 22:55:26 70.65,-163.86 93.30 01/03/2022 22:54:43 70.64,-163.78 93.29 3.13 43
11 01/06/2022 13:31:52 70.74, -23.09 93.10 01/06/2022 13:32:13 70.72, -23.07 93.07 2.87 21
12 01/06/2022 14:22:35 -70.61, 144.43 87.04 01/06/2022 14:21:43 -70.61, 144.41 87.05 0.79 52



Historial Predications of SNOs between FY3D and TERRA
